Regional Weather Roundup
Issued by NWS Boston, MA

Home | Current Version | Previous Version | Text Only | Print | Product List | Glossary On
Versions: 1 2 3 4 5 6 7 8 9 10 11 12 13 14 15 16 17 18 19 20 21 22 23 24 25 26 27
000
ASUS41 KBOX 031610
RWRBOX

REGIONAL WEATHER ROUNDUP
NATIONAL WEATHER SERVICE TAUNTON MA
1100 AM EST SAT DEC 03 2016

NOTE:  "FAIR" INDICATES FEW OR NO CLOUDS BELOW 12,000 FEET WITH NO
SIGNIFICANT WEATHER AND/OR OBSTRUCTIONS TO VISIBILITY.

MAZALL-031700-
EASTERN MASSACHUSETTS

CITY           SKY/WX    TMP DP  RH WIND       PRES   REMARKS
BOSTON         PTSUNNY   44  28  53 NW20G28   29.87S
BEVERLY        MOSUNNY   44  27  51 NW17G28   29.85R
LAWRENCE       CLOUDY    44  27  51 W16G23    29.87R
BEDFORD        PTSUNNY   42  24  49 NW20G30   29.87R
BLUE HILL        N/A     41  25  53 NW16G29   29.83S
NORWOOD        PTSUNNY   45  25  45 NW12G26   29.87S
MARSHFIELD     MOSUNNY   45  27  49 W15G32    29.86R
PLYMOUTH       MOSUNNY   44  26  49 NW16G26   29.86S
TAUNTON        PTSUNNY   45  25  45 NW10G24   29.87S
NEW BEDFORD    MOSUNNY   46  26  45 NW9G23    29.86F
$$

MAZALL-031700-
CAPE COD AND THE ISLANDS

CITY           SKY/WX    TMP DP  RH WIND       PRES   REMARKS
FALMOUTH       MOSUNNY   45  27  49 MISG      29.86
HYANNIS        SUNNY     44  27  51 NW16G29   29.82R
CHATHAM        CLOUDY    44  30  57 NW9G35    29.84S
NANTUCKET      MOSUNNY   45  27  49 NW20G31   29.84F
MARTHAS VNYRD  MOSUNNY   46  26  45 NW18G28   29.86F
$$

MAZALL-031700-
CENTRAL AND WESTERN MASSACHUSETTS

CITY           SKY/WX    TMP DP  RH WIND       PRES   REMARKS
WORCESTER      MOSUNNY   40  24  53 W20G32    29.87R WCI  30
FITCHBURG      CLOUDY    44  25  47 NW16G31   29.90R
ORANGE         CLOUDY    39  27  62 NW12      29.92R WCI  32
SPRINGFIELD    PTSUNNY   43  26  51 W20       29.93S
WESTFIELD      CLOUDY    41  27  57 NW17G33   29.95S
NORTH ADAMS    CLOUDY    37  25  61 W14G25    29.95S WCI  28
PITTSFIELD     CLOUDY    35  25  66 NW17G24   29.94S WCI  25
$$

RIZALL-031700-
RHODE ISLAND

CITY           SKY/WX    TMP DP  RH WIND       PRES   REMARKS
PROVIDENCE     MOSUNNY   45  25  45 NW22G29   29.90R
NEWPORT        MOSUNNY   45  28  51 NW18G26   29.88S
BLOCK ISLAND   SUNNY     45  28  51 NW17G26   29.91S
SMITHFIELD     CLOUDY    42  26  53 NW16G25   29.88S
WESTERLY       SUNNY     46  24  42 NW15G26   29.91F
$$

CTZALL-031700-
CONNECTICUT

CITY           SKY/WX    TMP DP  RH WIND       PRES   REMARKS
BRADLEY INTL   PTSUNNY   44  25  47 NW14G30   29.96S
HARTFORD       PTSUNNY   44  27  51 NW17G29   29.97S
BRIDGEPORT     SUNNY     47  26  44 NW17G29   29.97F
DANBURY        CLOUDY    41  27  57 W8G20     29.99F
GROTON         SUNNY     49  27  42 NW24G32   29.91F
NEW HAVEN      MOSUNNY   45  27  49 NW16G25   29.97S
CHESTER        FAIR      43  25  49 NW20G31   29.93F
MERIDEN        MOSUNNY   46  25  43 NW13G24   29.97S
WILLIMANTIC    SUNNY     44  27  51 NW13G26   29.93S
OXFORD         MOSUNNY   41  25  52 N12G23    29.98S
$$

MEZ002-015-021-024-NHZ003-005-008-011-012-014-VTZ005-008-031700-
NORTHERN NEW ENGLAND

CITY           SKY/WX    TMP DP  RH WIND       PRES   REMARKS
PORTLAND ME    PTSUNNY   46  28  49 NW10G20   29.81R
BANGOR ME      LGT SNOW  35  31  85 N13       29.77R FOG     WCI  26
CONCORD NH     CLOUDY    41  26  55 NW16G26   29.87R
MANCHESTER NH  PTSUNNY   41  25  53 NW17G25   29.87R
NASHUA NH      CLOUDY    41  27  57 NW16G30   29.89R
PORTSMOUTH NH  PTSUNNY   44  26  49 NW21      29.82S
JAFFREY NH     CLOUDY    38  24  57 NW8       29.88S
KEENE NH       CLOUDY    39  26  59 W8        29.92S
BURLINGTON VT  LGT SNOW  36  29  75 NW17      29.96R WCI  26
MT. WASHINGTON SNOWSHWR  12  12 100 NW59G72     N/A  VSB 0   WCI -15
$$

NYZ052-076-031700-
EASTERN NEW YORK

CITY           SKY/WX    TMP DP  RH WIND       PRES   REMARKS
ALBANY         MOSUNNY   41  26  55 NW24G31   30.01R WCI  31
NEW YORK CITY  PTSUNNY   47  28  47 NW24G31   30.02F
$$

ANZALL-031700-
MARINE OBSERVATIONS

STATION/POSITION TIME  TEMP    WIND        PRES    VSBY  WAVE
                       AIR SEA DIR/SP/G                  HT/PER
                 (UTC) (F)     (DEG/KT/KT) (MB)    (MI)  (FT/S)
BOSTON BUOY      1550   44 51  320/ 21/ 27 1009.3R         3/ 4
BUZZARDS BAY     1500   42     320/ 23/ 26 1012.1R
NANTUCKET SOUND  NOT AVBL
MASS BAY-STELLWA 1504   43 50  320/ 19/ 23 1009.8R  1 7/8  3/ 3
ISLE OF SHOALS   1500   42     310/ 20/ 23 1009.5R
S OF BLOCK IS    1555      56                N/A           8/ 6
$$

......................KEY.........................
  SKY/WX - SKY CONDITION/PRESENT WEATHER
  TMP    - TEMPERATURE IN FAHRENHEIT
  DWPT   - DEWPOINT IN FAHRENHEIT
  RH     - RELATIVE HUMIDITY IN PERCENT
  WIND   - DIRECTION AND SPEED IN MPH
  PRES   - MEAN SEA LEVEL PRESSURE IN INCHES OF HG
  WCI    - WIND CHILL INDEX
  VSB    - VISIBILITY IN MILES
  HX     - HEAT INDEX
  TC     - TEMPERATURE IN CELSIUS
  VRB    - VARIABLE WIND DIRECTION
  N/A    - NOT AVAILABLE




USA.gov is the U.S. government's official web portal to all federal, state and local government web resources and services.